Total_Precipitation_Accumulation
0.17 0.20 0.22 0.25 0.24 0.24 0.28 0.35 0.40 0.50 0.62 0.84 1.17 1.60 1.82 1.94 1.96 1.98 1.89 1.68 1.46 1.46 1.60 1.55 1.54 1.52 1.47 1.41 1.33 1.41 1.35 1.08 0.95 0.99 0.90 0.74 0.55 0.51 0.46 0.37 0.35 0.43 0.48
0.12 0.11 0.13 0.15 0.14 0.15 0.17 0.27 0.33 0.42 0.56 0.85 1.17 1.52 1.88 1.96 1.98 1.98 1.93 1.80 1.68 1.70 1.73 1.89 1.96 1.93 1.99 1.94 1.74 1.81 1.82 1.51 1.25 1.32 1.48 1.19 0.93 0.61 0.51 0.48 0.42 0.43 0.50
0.11 0.09 0.08 0.09 0.11 0.11 0.12 0.18 0.24 0.39 0.67 1.01 1.33 1.53 1.82 1.95 2.01 1.96 1.97 1.99 1.94 1.84 1.86 1.96 2.09 2.10 2.15 2.20 2.24 2.15 2.20 1.98 1.62 1.47 1.58 1.37 1.17 0.96 0.59 0.52 0.55 0.56 0.58
0.14 0.12 0.09 0.07 0.08 0.09 0.11 0.14 0.20 0.40 0.74 1.08 1.34 1.59 1.94 2.05 2.03 2.05 2.04 2.06 2.08 2.03 2.09 2.11 2.19 2.20 2.19 2.26 2.35 2.28 2.36 2.38 2.02 1.75 1.50 1.28 1.17 1.13 0.88 0.67 0.58 0.63 0.65
0.15 0.12 0.10 0.09 0.10 0.10 0.13 0.20 0.34 0.52 0.78 0.99 1.24 1.60 1.86 1.98 2.14 2.08 2.05 2.05 2.11 2.13 2.15 2.21 2.34 2.31 2.24 2.23 2.44 2.46 2.49 2.41 2.32 2.15 1.96 1.79 1.49 1.10 1.08 1.02 0.82 0.69 0.60
0.16 0.16 0.15 0.15 0.16 0.18 0.24 0.33 0.49 0.64 0.85 1.02 1.22 1.41 1.67 1.82 1.97 2.07 2.01 1.99 2.04 2.14 2.03 1.96 2.08 2.11 2.12 2.13 2.30 2.45 2.53 2.47 2.50 2.38 2.08 1.95 1.77 1.41 1.33 1.17 1.02 0.94 0.74
0.26 0.30 0.31 0.34 0.41 0.44 0.48 0.56 0.65 0.76 0.87 0.97 1.06 1.13 1.30 1.47 1.54 1.71 1.79 1.91 1.92 1.97 1.98 1.88 1.86 1.85 1.79 1.81 1.94 2.01 2.07 2.18 2.31 2.23 2.00 1.93 1.74 1.65 1.61 1.45 1.23 1.05 0.82
0.43 0.53 0.61 0.69 0.76 0.75 0.74 0.81 0.86 0.84 0.83 0.87 0.94 0.97 1.04 1.13 1.21 1.26 1.30 1.48 1.64 1.68 1.74 1.72 1.65 1.67 1.71 1.71 1.77 1.78 1.79 1.81 1.88 1.89 1.92 1.94 1.80 1.70 1.57 1.49 1.57 1.39 1.15
0.71 0.81 0.91 0.92 0.93 0.90 0.85 0.86 0.89 0.86 0.84 0.84 0.84 0.80 0.79 0.86 0.96 0.99 1.06 1.13 1.23 1.25 1.31 1.39 1.43 1.49 1.55 1.60 1.71 1.76 1.76 1.71 1.68 1.80 1.85 1.77 1.72 1.69 1.54 1.45 1.46 1.50 1.39
1.06 1.19 1.27 1.17 1.10 1.09 1.13 1.02 0.93 0.85 0.82 0.82 0.82 0.76 0.73 0.77 0.81 0.82 0.88 0.87 0.89 0.89 0.95 1.06 1.21 1.37 1.47 1.55 1.61 1.63 1.70 1.72 1.69 1.77 1.86 1.86 1.87 1.89 1.79 1.62 1.53 1.42 1.38
1.43 1.52 1.53 1.43 1.23 1.10 1.09 1.04 0.93 0.82 0.71 0.70 0.76 0.76 0.71 0.72 0.77 0.76 0.71 0.65 0.68 0.73 0.83 0.88 1.02 1.16 1.27 1.45 1.60 1.61 1.62 1.63 1.61 1.59 1.67 1.77 1.87 1.97 1.97 1.92 1.75 1.59 1.52
1.30 1.34 1.30 1.29 1.18 1.08 1.00 0.95 0.85 0.71 0.65 0.70 0.73 0.75 0.67 0.61 0.64 0.64 0.65 0.57 0.55 0.58 0.67 0.78 0.95 1.08 1.15 1.17 1.25 1.32 1.35 1.35 1.39 1.38 1.36 1.46 1.58 1.70 1.85 1.90 1.84 1.79 1.67
0.98 1.07 1.13 1.04 1.00 0.92 0.87 0.95 0.95 0.83 0.81 0.84 0.90 0.83 0.70 0.66 0.64 0.60 0.60 0.56 0.54 0.58 0.62 0.76 0.88 0.93 0.97 1.00 0.97 1.02 1.10 1.12 1.11 1.16 1.14 1.16 1.27 1.40 1.52 1.61 1.67 1.76 1.79
0.78 0.84 0.92 0.88 0.89 0.83 0.80 0.89 0.94 0.95 1.02 1.10 1.06 0.89 0.77 0.70 0.64 0.59 0.53 0.53 0.57 0.60 0.66 0.81 0.88 0.89 0.82 0.90 0.91 0.91 0.93 0.91 0.88 0.92 0.93 0.97 1.00 1.06 1.18 1.34 1.52 1.67 1.77
0.56 0.55 0.55 0.56 0.63 0.63 0.60 0.65 0.72 0.83 0.98 1.05 0.94 0.80 0.68 0.58 0.53 0.56 0.51 0.52 0.58 0.61 0.67 0.72 0.82 0.86 0.83 0.85 0.91 0.89 0.78 0.75 0.76 0.74 0.66 0.67 0.74 0.75 0.80 0.87 1.14 1.37 1.53
0.33 0.31 0.28 0.28 0.33 0.33 0.35 0.39 0.47 0.62 0.85 0.93 0.81 0.64 0.56 0.53 0.48 0.47 0.44 0.43 0.44 0.50 0.56 0.61 0.77 0.88 0.79 0.90 0.88 0.79 0.69 0.65 0.68 0.65 0.60 0.59 0.64 0.57 0.51 0.53 0.73 1.01 1.17
0.23 0.24 0.22 0.20 0.20 0.20 0.23 0.30 0.36 0.50 0.60 0.62 0.58 0.47 0.41 0.39 0.38 0.37 0.38 0.40 0.42 0.45 0.50 0.55 0.70 0.80 0.88 0.82 0.68 0.70 0.67 0.67 0.68 0.70 0.70 0.64 0.60 0.69 0.59 0.54 0.57 0.65 0.77
0.21 0.21 0.21 0.20 0.21 0.22 0.23 0.32 0.37 0.39 0.45 0.52 0.50 0.44 0.39 0.36 0.35 0.34 0.35 0.43 0.44 0.43 0.48 0.54 0.57 0.65 0.78 0.71 0.58 0.61 0.58 0.67 0.74 0.76 0.80 0.83 0.77 0.73 0.80 0.75 0.77 0.72 0.65
0.13 0.13 0.13 0.12 0.12 0.12 0.11 0.13 0.17 0.22 0.27 0.30 0.35 0.34 0.29 0.30 0.34 0.33 0.39 0.43 0.44 0.47 0.49 0.54 0.57 0.63 0.67 0.63 0.55 0.55 0.60 0.73 0.76 0.74 0.83 0.84 0.76 0.80 0.86 0.95 1.01 0.93 0.78
0.03 0.03 0.03 0.03 0.03 0.02 0.03 0.04 0.05 0.06 0.09 0.10 0.14 0.18 0.19 0.23 0.29 0.38 0.44 0.42 0.41 0.46 0.48 0.47 0.47 0.51 0.53 0.58 0.48 0.58 0.68 0.73 0.74 0.75 0.80 0.94 0.83 0.80 0.79 0.84 0.95 0.94 0.82
0.00 0.00 0.00 0.01 0.01 0.01 0.01 0.02 0.02 0.02 0.02 0.02 0.04 0.07 0.11 0.17 0.25 0.33 0.32 0.33 0.36 0.39 0.41 0.44 0.43 0.44 0.51 0.61 0.61 0.67 0.69 0.74 0.79 0.87 0.91 0.88 0.91 0.73 0.69 0.71 0.71 0.76 0.74
0.00 0.00 0.00 0.00 0.00 0.00 0.00 0.00 0.00 0.00 0.00 0.00 0.01 0.02 0.04 0.07 0.12 0.20 0.23 0.26 0.30 0.32 0.32 0.32 0.33 0.37 0.48 0.56 0.58 0.59 0.63 0.72 0.73 0.78 0.77 0.74 0.79 0.62 0.53 0.50 0.56 0.60 0.59
0.00 0.00 0.00 0.00 0.00 0.00 0.00 0.00 0.00 0.00 0.00 0.00 0.00 0.00 0.01 0.02 0.06 0.12 0.17 0.21 0.27 0.29 0.28 0.26 0.28 0.32 0.36 0.44 0.47 0.46 0.46 0.48 0.52 0.51 0.58 0.58 0.56 0.49 0.43 0.47 0.50 0.51 0.53
0.00 0.00 0.00 0.00 0.00 0.00 0.00 0.00 0.00 0.00 0.00 0.00 0.00 0.00 0.01 0.01 0.03 0.06 0.13 0.21 0.24 0.23 0.24 0.26 0.27 0.31 0.34 0.34 0.35 0.39 0.39 0.37 0.41 0.40 0.40 0.39 0.39 0.40 0.41 0.44 0.47 0.51 0.54
0.00 0.00 0.00 0.00 0.00 0.00 0.00 0.00 0.00 0.00 0.00 0.00 0.00 0.00 0.00 0.01 0.02 0.02 0.06 0.13 0.15 0.14 0.18 0.23 0.27 0.31 0.34 0.30 0.27 0.27 0.34 0.40 0.45 0.49 0.41 0.37 0.38 0.40 0.47 0.48 0.45 0.47 0.50
0.00 0.00 0.00 0.00 0.00 0.00 0.00 0.00 0.00 0.00 0.00 0.00 0.00 0.00 0.00 0.01 0.01 0.02 0.03 0.05 0.05 0.07 0.08 0.09 0.13 0.13 0.13 0.13 0.13 0.16 0.21 0.28 0.34 0.48 0.54 0.55 0.59 0.61 0.60 0.57 0.48 0.42 0.41